Hourly Data Report for June 14, 2021

MANIWAKI AIRPORT
QUEBEC
Current Station Operator: ECCC - MSC

46°16'29.000" N
75°59'31.000" W
199.70 m
7034482
71721
WMJ

Download Data

Hourly Data (June 2021)
Hourly Data Report for June 14, 2021
TIME
LST
Temp Definition
°C
Dew Point Definition
°C
Rel Hum Definition
%
Precip. Amount Definition
mm

Wind Dir Definition
10's deg

Wind Spd Definition
km/h
Visibility Definition
km
Stn Press Definition
kPa
Hmdx Definition


Wind Chill Definition


Weather Definition


00:00 15.3 14.2 93 0.0 5 1   98.27     LegendNANA
01:00 13.7 13.0 96 0.0 19 3   98.23     LegendNANA
02:00 13.2 12.7 97 0.0 23 3   98.28     LegendNANA
03:00 12.4 12.0 98 0.0 8 2   98.28     LegendNANA
04:00 12.5 12.2 98 0.0 35 6   98.26     LegendNANA
05:00 12.8 12.3 97 0.0 11 2   98.24     LegendNANA
06:00 13.7 13.1 96 0.0   0   98.27     LegendNANA
07:00 17.4 15.6 89 0.0 19 4   98.27     LegendNANA
08:00 18.8 14.7 77 0.0 16 9   98.26     LegendNANA
09:00 20.0 15.2 74 0.0 22 10   98.26     LegendNANA
10:00 20.6 15.1 71 0.0 21 9   98.27 25   LegendNANA
11:00 21.9 14.7 63 0.0 21 11   98.26 26   LegendNANA
12:00 22.5 15.6 65 0.0 18 12   98.19 27   LegendNANA
13:00 22.9 14.9 61 0.0 16 9   98.15 27   LegendNANA
14:00 22.5 14.5 61 0.0 22 11   98.14 26   LegendNANA
15:00 20.0 15.5 75 0.0 31 13   98.17     LegendNANA
16:00 16.5 15.9 96 16.3 14 4   98.32     LegendNANA
17:00 16.5 15.8 96 3.2 17 5   98.30     LegendNANA
18:00 17.1 16.2 95 0.4 35 4   98.20     LegendNANA
19:00 16.6 16.0 96 0.0 8 4   98.25     LegendNANA
20:00 16.1 15.6 97 0.0 5 2   98.31     LegendNANA
21:00 15.8 15.4 98 0.3 18 4   98.29     LegendNANA
22:00 15.6 15.2 98 0.4 35 3   98.31     LegendNANA
23:00 15.4 15.2 98 0.2 5 4   98.31     LegendNANA

Notes on Data Quality.

Legend

  • E = Estimated
  • M = Missing
  • NA = Not Available*
  • [empty] = Indicates an unobserved value
Date modified: